GSAT0212 (GALILEO 16)

Last updated on Jan. 24, 2020, 4:41 a.m. UTC

1 41860U 16069B   20022.06286145  .00000011  00000-0  00000-0 0  9991
2 41860  54.6289 165.9343 0002306 349.4260  10.5099  1.70473602 19795
UTC
Height (km)
Latitude
Longitude
Inclination
Orbital Period
UTC large
Height (km)
Speed (km/s)
/
Latitude / Longitude
Inclination (degrees)
Orbital Period (minutes)
Azimuth
Elevation
Range (km)
Doppler Factor
iOS Compass Heading
iOS Angle

Next 30 passes for location: Hong Kong

Rise time Rise Azimuth (degrees) Set time Set Azimuth (degrees) Duration Max altitude (degrees)

No matching passes for this satellites